{"data":{"norad_id":59684,"intl_designator":"2024-086C","name":"STARLINK-32091","alt_names":[],"object_type":"PAYLOAD","status":"ACTIVE","operator":null,"country":"US","launch_date":"2024-05-08","launch_site_code":"AFETR","launch_vehicle":null,"mission":null,"orbit_class":"UNKNOWN","rcs_meters":null,"size_class":null,"mass_kg":null,"dimensions":null,"purposes":["comms"],"wikipedia_slug":null,"has_3d_model":false,"image_url":null,"decayed_at":null,"tle_current":{"epoch":"2026-09-21T14:50:58.729056Z","epoch_age_seconds":74627,"freshness":"FRESH","line1":"1 59684U 24086C   26264.61873529  .00001178  00000+0  52330-4 0  9996","line2":"2 59684  43.0030  25.8958 0001431 268.9025  91.1663 15.27586861134173","mean_motion":15.27586861,"eccentricity":0.0001431,"inclination_deg":43.003,"raan_deg":25.8958,"arg_perigee_deg":268.9025,"mean_anomaly_deg":91.1663,"bstar":5.233e-5,"rev_number":13417,"period_min":94.2663253242,"perigee_km":482.04671902385,"apogee_km":484.01038460478,"semimajor_km":6861.1655518143,"source":"CELESTRAK","updated_at":"2026-09-22T09:00:49.031712Z"}}}